Total_Precipitation_Accumulation
0.02 0.03 0.04 0.04 0.04 0.06 0.09 0.17 0.24 0.31 0.26 0.36 0.48 0.58 0.75 0.92 1.17 1.26 1.38 1.51 1.78 2.09 2.49 3.22 3.89 4.37 4.98 5.73 6.28 6.19 5.59 5.19 4.78 4.30 3.85 3.90 3.83 3.61 3.37 3.16 2.95 2.94 2.88 2.75
0.03 0.06 0.05 0.04 0.04 0.06 0.09 0.15 0.21 0.26 0.22 0.24 0.42 0.70 0.86 0.93 1.13 1.13 1.22 1.31 1.51 1.87 2.52 3.30 3.87 3.99 3.97 4.23 4.46 3.96 3.79 3.83 3.56 3.40 3.44 3.43 3.33 3.04 2.89 2.91 3.15 2.82 2.82 2.71
0.04 0.07 0.04 0.04 0.05 0.07 0.11 0.14 0.16 0.24 0.24 0.31 0.50 0.93 1.12 1.02 1.07 1.02 1.06 1.29 1.75 2.16 2.59 3.11 3.25 3.23 3.07 3.01 3.00 2.78 2.76 3.10 3.13 3.23 3.32 3.34 3.34 3.17 3.02 2.88 3.05 2.75 2.56 2.52
0.03 0.04 0.04 0.05 0.06 0.06 0.10 0.09 0.07 0.10 0.20 0.45 0.63 1.15 1.37 1.27 1.22 0.98 1.10 1.55 2.00 2.30 2.55 2.59 2.15 1.95 2.04 2.12 2.24 2.51 2.63 2.80 2.76 2.93 2.91 2.85 2.65 2.55 2.50 2.51 2.68 2.79 2.53 2.40
0.04 0.05 0.05 0.06 0.06 0.05 0.07 0.06 0.05 0.10 0.21 0.49 0.79 1.25 1.53 1.41 1.19 0.98 0.99 1.06 1.44 1.61 1.60 1.53 1.41 1.39 1.57 1.82 2.07 2.41 2.55 2.63 2.57 2.57 2.69 2.89 2.82 2.84 2.73 2.69 2.98 3.02 3.04 2.83
0.05 0.06 0.05 0.04 0.04 0.05 0.06 0.08 0.17 0.27 0.45 0.95 1.03 1.14 1.45 1.35 1.14 1.00 0.87 0.80 1.03 1.09 0.97 1.07 1.18 1.39 1.64 1.80 1.88 2.10 2.28 2.50 2.53 2.56 2.64 2.68 2.75 2.95 2.95 2.95 2.83 2.71 2.83 2.81
0.10 0.10 0.07 0.05 0.05 0.06 0.06 0.10 0.34 0.72 1.02 1.20 0.90 1.02 1.35 1.03 0.83 0.74 0.62 0.60 0.68 0.75 0.84 1.03 1.19 1.41 1.52 1.59 1.58 1.74 1.82 2.04 2.29 2.38 2.41 2.49 2.64 2.79 2.79 2.89 2.84 2.73 2.52 2.39
0.16 0.15 0.10 0.05 0.06 0.06 0.06 0.08 0.18 0.32 0.48 0.69 0.85 1.27 1.36 0.96 0.63 0.50 0.48 0.49 0.53 0.65 0.77 0.88 1.07 1.15 1.22 1.37 1.56 1.73 1.71 1.71 1.78 1.89 2.11 2.26 2.29 2.41 2.46 2.80 2.71 2.67 2.52 2.37
0.06 0.06 0.06 0.05 0.06 0.04 0.05 0.05 0.07 0.11 0.18 0.45 0.93 1.21 1.16 0.80 0.61 0.57 0.58 0.63 0.67 0.72 0.85 0.84 0.87 1.08 1.16 1.07 1.16 1.37 1.49 1.58 1.66 1.72 1.92 1.94 1.92 2.02 2.26 2.34 2.22 2.08 2.18 2.29
0.03 0.04 0.04 0.04 0.04 0.05 0.06 0.06 0.07 0.10 0.18 0.36 0.77 1.29 1.51 1.19 0.87 0.71 0.76 0.74 0.72 0.73 0.80 0.88 0.90 0.97 1.02 1.00 1.16 1.29 1.40 1.52 1.59 1.60 1.69 1.56 1.67 1.76 1.98 2.09 2.08 1.98 1.93 2.12
0.03 0.04 0.04 0.04 0.06 0.07 0.07 0.07 0.08 0.12 0.14 0.23 0.56 0.90 0.92 1.03 0.89 0.68 0.73 0.74 0.70 0.66 0.70 0.83 0.85 0.93 0.95 0.93 1.04 1.22 1.43 1.53 1.44 1.44 1.46 1.55 1.65 1.82 1.91 1.90 1.95 1.97 1.98 2.10
0.03 0.04 0.03 0.05 0.08 0.09 0.09 0.10 0.11 0.14 0.17 0.17 0.29 0.50 0.54 0.62 0.75 0.98 0.94 0.76 0.75 0.81 0.78 0.86 0.86 0.89 0.89 0.89 0.95 1.08 1.28 1.44 1.48 1.46 1.53 1.67 1.76 1.86 1.93 1.85 1.93 2.14 2.17 2.20
0.03 0.04 0.05 0.13 0.18 0.17 0.13 0.13 0.12 0.12 0.13 0.15 0.28 0.49 0.51 0.52 0.57 0.72 0.85 0.91 0.82 0.74 0.77 0.81 0.94 0.89 0.85 0.90 0.95 1.08 1.35 1.54 1.73 1.81 1.78 1.81 1.80 1.87 1.99 2.05 2.08 2.19 2.29 2.34
0.03 0.04 0.05 0.13 0.22 0.24 0.22 0.18 0.15 0.12 0.11 0.12 0.19 0.39 0.50 0.63 0.70 0.71 0.84 0.98 0.86 0.71 0.72 0.84 0.97 1.06 1.13 1.15 1.15 1.27 1.44 1.53 1.69 1.71 1.73 1.85 1.91 2.05 2.19 2.27 2.32 2.36 2.34 2.34
0.03 0.03 0.03 0.04 0.07 0.14 0.22 0.21 0.15 0.11 0.09 0.11 0.15 0.26 0.45 0.66 0.80 0.91 0.96 1.00 0.91 0.86 0.89 0.93 1.06 1.21 1.30 1.38 1.36 1.33 1.41 1.47 1.64 2.01 2.20 2.35 2.35 2.38 2.50 2.57 2.54 2.57 2.53 2.44
0.06 0.05 0.05 0.05 0.07 0.09 0.13 0.18 0.15 0.11 0.11 0.13 0.17 0.30 0.45 0.71 0.80 0.89 0.89 0.94 0.92 1.00 1.08 1.20 1.26 1.34 1.39 1.45 1.54 1.57 1.60 1.70 1.89 2.34 2.69 2.80 2.82 2.83 2.87 2.90 2.88 2.88 2.83 2.96
0.13 0.13 0.10 0.07 0.09 0.12 0.17 0.16 0.16 0.15 0.14 0.20 0.26 0.37 0.50 0.68 0.89 1.00 0.91 0.81 0.86 0.98 1.07 1.16 1.30 1.43 1.48 1.57 1.64 1.75 1.84 1.93 2.08 2.35 2.57 2.66 2.75 2.84 3.02 3.04 3.04 3.02 3.03 3.07
0.22 0.23 0.20 0.14 0.16 0.24 0.22 0.24 0.25 0.25 0.26 0.30 0.43 0.57 0.64 0.71 0.85 0.91 0.81 0.83 0.89 0.98 1.09 1.18 1.25 1.46 1.60 1.77 1.98 2.24 2.37 2.46 2.46 2.55 2.71 2.81 2.78 2.82 2.89 2.89 2.81 2.82 2.96 2.99
0.27 0.31 0.30 0.27 0.28 0.27 0.30 0.35 0.36 0.38 0.50 0.56 0.69 0.83 0.92 0.92 0.92 1.06 0.98 0.95 1.02 1.15 1.29 1.46 1.61 1.69 1.81 1.94 2.11 2.35 2.63 2.79 2.79 2.70 2.79 2.92 3.01 3.09 3.00 2.91 2.90 2.92 3.00 2.89
0.32 0.37 0.44 0.40 0.45 0.48 0.45 0.49 0.47 0.53 0.93 0.87 0.94 1.07 1.16 1.25 1.55 1.59 1.32 1.36 1.31 1.29 1.42 1.57 1.72 1.82 1.86 2.02 2.13 2.25 2.45 2.57 2.64 2.69 2.80 2.93 3.03 3.20 3.30 3.24 3.25 3.18 3.11 3.05
0.50 0.54 0.50 0.51 0.59 0.61 0.54 0.52 0.59 1.07 1.49 1.26 1.19 1.27 1.39 1.56 1.63 1.58 1.45 1.51 1.51 1.37 1.37 1.43 1.49 1.65 1.72 1.80 1.94 2.14 2.25 2.24 2.33 2.42 2.46 2.65 2.89 3.12 3.27 3.36 3.35 3.34 3.26 3.18
0.78 0.83 0.78 0.75 0.96 1.08 0.73 0.65 1.01 1.40 1.38 1.49 1.40 1.41 1.52 1.58 1.64 1.67 1.68 1.65 1.55 1.44 1.34 1.35 1.45 1.57 1.66 1.81 2.10 2.33 2.32 2.27 2.31 2.41 2.54 2.69 2.91 3.01 3.04 3.15 3.21 3.34 3.30 3.19
1.05 1.13 1.16 1.19 1.34 1.21 0.90 0.97 1.09 1.14 1.34 1.43 1.47 1.52 1.58 1.56 1.54 1.48 1.45 1.49 1.55 1.43 1.40 1.35 1.39 1.54 1.77 2.02 2.28 2.51 2.50 2.54 2.60 2.64 2.73 2.81 2.90 3.00 3.07 3.14 3.14 3.14 3.10 2.93
1.15 0.98 1.21 1.50 1.66 1.45 1.23 1.16 1.20 1.27 1.42 1.54 1.67 1.79 1.76 1.61 1.47 1.47 1.48 1.47 1.54 1.51 1.44 1.42 1.43 1.55 1.76 1.89 2.02 2.26 2.42 2.48 2.66 2.67 2.59 2.58 2.59 2.66 2.74 2.85 2.88 2.84 2.76 2.69
1.26 1.28 1.48 1.90 2.09 1.91 1.68 1.48 1.45 1.50 1.74 1.91 1.89 1.87 1.78 1.75 1.70 1.75 1.72 1.60 1.53 1.50 1.54 1.54 1.59 1.68 1.73 1.76 1.83 1.96 2.16 2.32 2.51 2.64 2.66 2.70 2.69 2.71 2.76 2.83 2.92 2.80 2.64 2.61
1.23 1.57 1.91 2.24 2.15 2.22 2.08 1.69 1.65 1.71 1.87 1.98 1.93 1.93 1.96 1.96 1.87 1.72 1.66 1.60 1.58 1.58 1.62 1.68 1.75 1.79 1.79 1.77 1.87 1.98 2.15 2.40 2.67 2.68 2.61 2.64 2.71 2.80 2.89 2.94 2.96 3.02 2.75 2.65